STARLINK-1640, 46173

Orbit data source: Space-Track

STARLINK-1640, 46173 is a payload satellite owned by SpaceX/Seattle (US) in LEO that was launched on Tue, 18 Aug 2020 UTC via an FALCON 9 launch vehicle from the Air Force Eastern Test Range (AFETR). Payload-class satellites include a variety of spacecraft equipped with specific instruments for various scientific and technological missions. These include communications satellites like Starlink; space stations such as the ISS; scientific satellites like the Hubble; Earth observation satellites from companies like Planet Labs, Umbra, and HawkEye 360; GPS; miniature CubeSats for education and research; and military/defense satellites.

Loading next visibility...
Identifier
46173, 2020-057BJ
Orbit
LEO
Country
Flag of USUS
Related business
Manufacturer
SpaceX/Seattle
Mission
Partially operational Commercial Communications
Bus & Motor
STARLINK, Unknown motor
Mass
260 kg wet, ~248 kg dry
Launch date (UTC)
2020-08-18 (6 years ago)
Launch vehicle
FALCON 9
Launch site
Air Force Eastern Test Range (AFETR)
Object type
Payload
Rocket body
Debris
Shape & HBR
Box + 1 Pan, 10.1 m
Radar Cross Section
13.562 m², Large (>1 m²)

Expand to show TLE details & history
Last TLE update: 4 hours ago

TLE from 4 hours ago
0 STARLINK-1640
1 46173U 20057BJ  26123.17278050  .00095707  00000-0  92273-3 0  9993
2 46173  53.0458  33.7638 0002272  60.1319 299.9921 15.65753611314819
Epoch: 2026-05-03T04:08Z
TLE epoch observation values (Epoch: 2026-05-03T04:08:48.235Z)
Latitude
-0.00003°
Longitude
110.48266°
Altitude
371.207 km
Speed
7.689 km/s
True Right ascension
02h 15m 03s
True Declination
0° 00' 00"
Sunlit
Object was in daylight at epoch
Visualization orbit readout
Latitude
Unknown
Longitude
Unknown
Altitude
Unknown
Speed
Unknown
Apparent Right ascension
Unknown
Apparent Declination
Unknown
Sunlit
N/A
Visualization observer readout
Local Sidereal Time
15:46:28
Azimuth
Unknown
Elevation
Unknown
Doppler factor
Unknown
Orbital elements
Apogee altitude
372.885 km
Perigee altitude
369.818 km
Semi-major axis
6,749.488 km
Eccentricity
0.00023
Inclination
53.0458°
RAAN
33.7638°
Arg. of periapsis
60.1319°
True anomaly
299.96955°
Mean anomaly
299.9921°
Eccentric anomaly
299.98082°
Mean motion
3.91414 °/min
Orbital period
91.97 mins
BSTAR
0.00092273
Loading maneuver chart data...
Computing Atmospheric mass density...
Loading historical data...
Loading historical data...
Loading historical data...
Loading historical data...
Loading historical data...
Loading historical data...
Loading historical data...

Documentation

Showing up to 5 results
|